This demonstration page uses our WeatherBlox Daily Observations layout. Learn more.

Left ArrowRight Arrow

39.92423, -83.80882

Hourly Observations for February 4, 2020

Temp ( °F °C ) Dew Point ( °F °C ) Humidity (%) Winds ( mph kmh ) Pressure ( in mb ) Visibility ( mi km ) Precip ( " mm )
12:56 am 00:56 Cloudy 57 13.9 43 6.1 60 60 SSW 10 17 29.77 1008 10 16 N/A
1:56 am 01:56 Cloudy 58 14.4 42 5.6 56 56 SW 14 22 29.75 1008 10 16 N/A
2:56 am 02:56 Cloudy 58 14.4 42 5.6 56 56 SW 14 22 29.77 1008 10 16 N/A
3:56 am 03:56 Cloudy 58 14.4 44 6.7 60 60 SW 16 26 29.77 1008 10 16 N/A
4:56 am 04:56 Cloudy 57 13.9 44 6.7 62 62 SW 13 20 29.78 1008 10 16 N/A
5:56 am 05:56 Cloudy 57 13.9 47 8.3 69 69 WSW 12 19 29.80 1009 10 16 N/A
6:06 am 06:06 Cloudy 57 14 46 8 67 67 SW 10 17 29.80 1009 10 16 N/A
6:56 am 06:56 Cloudy with Light Rain 55 12.8 49 9.4 80 80 SW 9 15 29.82 1010 10 16 0.00 0.00
7:31 am 07:31 Cloudy with Light Rain 54 12 52 11 94 94 SSW 12 19 29.82 1010 10 16 0.00 0.00
7:44 am 07:44 Cloudy with Light Rain 54 12 52 11 94 94 SSW 13 20 29.82 1010 10 16 0.00 0.00
7:56 am 07:56 Cloudy with Light Rain 53 11.7 52 11.1 96 96 SSW 13 20 29.83 1010 9 14 0.01 0.25
8:46 am 08:46 Cloudy with Light Rain 54 12 54 12 100 100 SSW 8 13 29.83 1010 10 16 0.01 0.25
8:56 am 08:56 Cloudy with Light Rain 53 11.7 53 11.7 100 100 SSW 13 20 29.83 1010 10 16 0.02 0.51
9:56 am 09:56 Cloudy 54 12.2 54 12.2 100 100 SSW 16 26 29.83 1010 10 16 0.00 0.00
10:56 am 10:56 Cloudy 55 12.8 55 12.8 100 100 SSW 12 19 29.82 1010 10 16 N/A
11:56 am 11:56 Cloudy 55 12.8 55 12.8 100 100 SW 12 19 29.81 1010 10 16 N/A
12:56 pm 12:56 Cloudy with Light Rain 55 12.8 55 12.8 100 100 SW 10 17 29.79 1009 10 16 0.00 0.00
1:56 pm 13:56 Cloudy with Rain 55 12.8 55 12.8 100 100 SW 9 15 29.79 1009 6 10 0.13 3.30
2:24 pm 14:24 Cloudy with Rain 46 8 46 8 100 100 N 12 19 29.80 1009 2 3 0.05 1.27
2:31 pm 14:31 Cloudy with Rain 43 6 43 6 100 100 N 15 24 29.81 1009 2 3 0.06 1.52
2:56 pm 14:56 Cloudy with Light Rain 41 5 41 5 100 100 NNE 16 26 29.81 1010 3 4 0.10 2.54
3:06 pm 15:06 Cloudy with Light Rain 39 4 39 4 100 100 NNE 14 22 29.85 1011 4 6 0.01 0.25
3:43 pm 15:43 Cloudy with Light Rain 37 3 37 3 100 100 NNE 13 20 29.86 1011 5 8 0.03 0.76
3:56 pm 15:56 Cloudy with Light Rain 37 2.8 37 2.8 100 100 NNE 14 22 29.84 1011 3 5 0.03 0.76
4:56 pm 16:56 Cloudy with Rain 35 1.7 35 1.7 100 100 NNE 17 28 29.87 1012 3 5 0.00 0.00
5:07 pm 17:07 Cloudy with Light Rain 36 2 36 2 100 100 NNE 13 20 29.90 1013 3 4 0.00 0.00
5:17 pm 17:17 Cloudy with Light Rain 36 2 36 2 100 100 NNE 16 26 29.90 1013 4 6 0.00 0.00
5:56 pm 17:56 Cloudy with Light Rain 35 1.7 35 1.7 100 100 NNE 16 26 29.89 1012 10 16 N/A
6:56 pm 18:56 Cloudy with Light Rain 34 1.1 33 0.6 97 97 NNE 22 35 29.91 1013 10 16 N/A
7:56 pm 19:56 Cloudy with Light Rain 34 1.1 33 0.6 97 97 NNE 17 28 29.96 1014 10 16 N/A
8:56 pm 20:56 Cloudy 33 0.6 33 0.6 100 100 NNE 16 26 29.96 1015 10 16 0.00 0.00
9:56 pm 21:56 Cloudy 33 0.6 33 0.6 100 100 NNE 22 35 29.98 1015 10 16 N/A
10:27 pm 22:27 Cloudy with Light Wintry Mix 32 undefined 30 -1 93 93 NE 22 35 30.01 1016 10 16 0.00 0.00
10:56 pm 22:56 Cloudy with Light Wintry Mix 32 undefined 31 -0.6 96 96 NNE 18 30 30.01 1016 9 14 0.00 0.00
11:10 pm 23:10 Cloudy with Light Wintry Mix 30 -1 30 -1 100 100 NNE 14 22 30.05 1018 4 6 0.00 0.00
11:21 pm 23:21 Cloudy with Light Snow 30 -1 30 -1 100 100 NE 17 28 30.03 1017 3 5 0.00 0.00
11:24 pm 23:24 Cloudy with Light Snow 30 -1 30 -1 100 100 NE 17 28 30.03 1017 3 5 0.00 0.00
11:30 pm 23:30 Cloudy with Light Snow 30 -1 30 -1 100 100 NE 18 30 30.02 1017 4 6 0.00 0.00
11:37 pm 23:37 Cloudy with Light Freezing Rain 30 -1 30 -1 100 100 NE 18 30 30.03 1017 6 10 0.00 0.00
11:54 pm 23:54 Cloudy 30 -1 30 -1 100 100 NE 17 28 30.03 1017 10 16 0.00 0.00
11:56 pm 23:56 Cloudy 31 -0.6 31 -0.6 100 100 NE 15 24 29.99 1016 10 16 0.00 0.00

Powered by AerisWeather